{"data":{"norad_id":57993,"epoch":"2026-09-20T03:04:57.871776Z","epoch_age_seconds":169667,"freshness":"FRESH","line1":"1 57993U 23153C   26263.12844759 -.00000072  00000+0  69334-5 0  9995","line2":"2 57993  43.0060  48.9402 0001754 275.8432  84.2220 15.27576622164634","mean_motion":15.27576622,"eccentricity":0.0001754,"inclination_deg":43.006,"raan_deg":48.9402,"arg_perigee_deg":275.8432,"mean_anomaly_deg":84.222,"bstar":6.9334e-6,"rev_number":16463,"period_min":94.266957170021,"perigee_km":481.85575719011,"apogee_km":484.26266482093,"semimajor_km":6861.1962110055,"source":"CELESTRAK","updated_at":"2026-09-21T09:00:33.753356Z"}}